CZ-6A DEB

Satellite information

Favourite Embed

Satellite Type and Status

DEBRISIN ORBIT

Key statistics

Satellite CZ-6A DEB at a glance.

Uptime

1130

Days in orbit

Revolutions

≈ 14.7

Per day

Orbit

SSO

Sun Synchronous Orbit

Inclination

98.7

Latest

Satellite identification and parameters

Extended collection of information and parameters for CZ-6A DEB.

Object identification

Identified? True

Debris? True

Object name: CZ-6A DEB

International designator: 2022-151PJ

Object number (NORAD): 54632

Object ID (CCSDS): 54632

Country: PEOPLES REPUBLIC OF CHINA (PRC)

Current information (Y/N): Y

RCS size: SMALL

Orbital parameters

Period: 97.729 minutes

Inclination: 98.6547 deg

SMA: 7028.173 km

Apoapsis: 694.127 km

Periapsis: 605.95 km

RAAN: 40.6975 deg

Eccentricy: 0.00627312

Argument of periapsis: 146.5698 deg

Mean anomaly: 213.9493 deg

Mean motion: 14.7346248 rev/day

Mean motion (dot): 0.00027015 rev/day2

B* drag term: 0.0040273939 1/REarth

Two-line elements (TLE)

Creation date: Dec. 14, 2025, 6:24 p.m.

Reference frame: TEME

Reference center: EARTH

Epoch: Dec. 14, 2025, 2:28 a.m. UTC

TLE line 0: 0 CZ-6A DEB

TLE line 1: 1 54632U 22151PJ 25348.10337219 .00027015 00000-0 40274-2 0 9993

TLE line 2: 2 54632 98.6547 40.6975 0062731 146.5698 213.9493 14.73462480162043

Live tracking on map

Real-time ground track for satellite CZ-6A DEB.

In-orbit conjunctions

A list of the most updated potential collisions computed for object CZ-6A DEB.

Target Orbit TCA Probability of collision Miss distance Type
CZ-2C R/B LEO 2025-01-10 09:50:14 0.0008238459 60.0 (m) ROCKET BODY
COSMOS 2441 SSO 2024-12-10 17:54:12 0.0003245799 392.0 (m) PAYLOAD
IRIDIUM 63 LEO 2024-11-28 08:44:46 0.0003215233 433.0 (m) PAYLOAD
IRIDIUM 33 DEB LEO 2024-10-15 12:07:44 0.0001143508 188.0 (m) DEBRIS
COSMOS 2251 DEB LEO 2024-08-23 16:29:29 0.0001977403 207.0 (m) DEBRIS

Associated space launch

Chinese satellite reported for atmospheric/ocean/environmental/spatial parameter research purposes, details TBD.

CZ-6A DEB was lifted into orbit during the mission ‘Long March 6A | Yunhai 3’, on board a Long March 6A space rocket.

The launch took place on Nov. 11, 2022, 10:52 p.m. from Launch Complex 9A.

For more information about the launch, click the button.

Launch to space Long March 6A | Yunhai 3
Long March 6A | Yunhai 3

Agency: N/A

Status: Launch Successful

Launch date: Nov. 11, 2022, 10:52 p.m. UTC

Rocket: Long March 6A

Launch pad: Launch Complex 9A

Location: Taiyuan Satellite Launch Center, People's Republic of China

...

Latest news about this satellite

There are no fresh news available about this satellite. Check back as we update our databases every day.


Newsletter sign-up

Weekly statistics, charts and insights to help you stay on top of the space industry.